GFSWCAN_sfc_30mbdewp_054.txt.gz
Dewpoint
51 50 49 48 46 45 43 42 43 44 43 41 41 40 41 41 41 41 37 38 33 27 26 25 24 22 23 27 32 34 35 37 36 31 28 27 25 28 24 24 25 25 24 25 24 25 20 33 35 32 35 36 36 36
51 51 49 48 46 45 44 43 43 44 43 41 40 40 42 42 41 41 36 38 36 33 29 31 30 29 27 24 24 26 33 35 38 33 30 28 25 25 25 24 27 25 26 24 24 25 28 29 34 38 37 36 36 36
52 51 50 48 47 46 45 44 43 45 43 41 39 40 41 41 41 42 40 39 37 33 28 26 26 29 32 31 30 24 30 35 36 34 38 34 29 27 25 25 27 28 29 27 26 27 28 30 34 40 40 37 36 37
52 51 50 48 47 46 45 45 44 45 43 42 40 40 41 42 42 42 40 40 38 31 26 23 27 25 27 29 30 30 28 31 30 33 37 36 32 30 28 29 27 29 30 28 28 30 32 33 32 39 37 37 37 38
52 51 50 49 48 47 46 45 45 44 44 42 40 42 42 42 41 40 39 39 38 33 25 27 30 31 28 28 27 28 28 27 28 28 30 35 34 32 33 32 30 31 31 30 28 31 30 32 35 36 36 37 36 35
52 51 50 49 48 47 47 46 45 45 43 41 41 42 42 42 39 37 30 37 39 38 30 24 29 28 29 32 32 32 28 27 31 28 30 33 39 35 33 30 29 29 31 31 32 36 36 37 38 37 36 35 35 35
50 50 49 49 48 47 46 45 45 44 41 40 41 41 42 39 38 32 33 37 39 38 30 25 25 30 36 31 29 29 29 33 28 29 29 30 32 38 35 31 29 30 31 33 35 36 35 36 37 36 35 35 36 36
49 49 49 48 48 47 46 45 45 44 41 41 42 41 40 39 41 37 39 40 39 35 33 25 24 28 34 31 28 29 29 30 31 29 34 32 33 37 33 34 33 33 33 35 35 35 34 34 34 33 34 34 34 35
49 49 48 48 47 46 46 46 45 42 41 41 41 39 38 38 33 35 38 40 40 35 27 28 25 26 37 35 36 31 34 28 32 32 32 35 34 31 34 34 34 35 34 34 35 34 33 33 33 34 35 34 34 34
48 48 48 48 47 46 46 46 44 42 41 38 35 32 29 35 38 39 37 33 32 32 31 25 30 28 34 35 33 33 33 32 29 32 37 32 33 36 37 35 34 35 35 34 33 33 34 34 34 33 34 34 34 35
48 48 48 47 46 46 47 45 43 41 35 32 30 29 36 38 36 33 30 28 30 26 30 29 31 29 37 32 33 36 34 33 29 32 33 32 31 35 32 31 31 32 32 32 32 32 32 32 33 33 33 34 35 33
47 47 47 47 46 47 46 44 41 39 37 35 33 35 34 31 30 27 27 30 28 27 32 30 34 33 37 40 35 35 32 32 28 36 31 29 32 32 30 29 29 30 30 31 31 31 32 32 33 33 33 34 32 29
48 47 47 47 47 47 46 43 41 38 36 36 33 27 29 28 23 23 23 26 28 31 32 33 31 36 37 38 35 34 30 30 34 31 28 29 32 30 29 29 29 30 30 31 33 33 32 30 31 32 33 35 35 32
46 47 47 47 47 47 45 43 40 36 35 29 26 20 24 23 24 27 29 29 32 32 33 33 32 33 35 34 34 29 33 33 26 24 25 31 31 29 28 29 28 30 32 31 29 29 28 28 27 29 28 27 29 32
43 44 46 47 47 46 43 42 38 36 31 25 25 15 21 27 30 30 32 31 33 34 33 32 33 34 32 31 32 31 29 25 24 24 31 32 30 28 28 30 28 28 29 28 28 28 27 27 27 26 26 25 24 25
44 43 45 46 46 45 43 38 36 34 29 25 25 21 24 24 25 29 30 30 34 33 33 32 30 29 29 31 29 27 27 24 29 32 33 30 29 28 28 30 27 26 24 23 27 26 26 25 25 26 26 27 26 24
45 43 46 46 45 42 39 36 35 31 29 25 21 25 24 24 26 26 28 29 31 31 29 30 27 27 30 28 27 28 28 32 31 33 31 31 28 27 27 28 30 29 28 21 22 24 25 26 23 20 19 24 26 26
42 43 45 45 40 37 33 33 32 28 24 25 23 25 24 23 25 26 28 30 30 29 29 28 29 26 26 26 26 31 31 32 32 29 31 30 28 26 23 24 25 25 20 20 22 22 24 22 18 15 18 22 24 25
41 44 44 40 38 34 31 29 30 25 23 24 24 24 24 25 27 27 28 29 30 30 29 28 26 24 25 28 30 33 33 32 31 29 29 29 28 26 24 24 25 22 20 20 19 19 19 19 17 16 18 21 22 23
43 44 41 40 37 31 27 25 27 24 20 22 23 23 25 25 25 25 25 26 26 26 26 24 25 27 27 30 30 29 29 29 29 28 28 28 27 27 26 25 23 21 19 20 18 19 17 16 15 15 18 22 21 20
41 42 40 36 31 31 28 23 21 22 22 19 22 20 22 22 23 22 22 25 24 23 22 25 25 26 27 28 28 28 27 28 27 28 28 29 28 26 27 26 24 19 16 15 15 13 15 14 14 16 18 21 20 20
35 36 32 32 29 28 24 24 23 22 21 21 19 19 19 19 20 20 21 20 20 21 24 25 24 25 25 24 24 25 25 25 25 27 29 28 26 26 25 26 24 22 18 15 14 13 13 15 15 15 18 19 19 16
37 35 31 31 26 26 20 24 21 20 19 19 16 16 17 16 17 18 15 18 20 23 25 24 24 24 22 21 20 19 21 21 22 24 26 26 26 26 25 25 24 23 21 19 19 18 16 17 15 17 18 18 17 15
36 32 29 27 26 19 21 19 20 18 18 17 16 15 17 16 16 15 13 18 21 22 21 20 20 17 17 19 19 20 22 24 23 23 25 25 23 21 22 25 24 24 23 20 18 15 15 15 16 15 16 17 16 15
28 26 27 22 21 19 18 17 17 17 16 15 14 13 14 14 14 14 12 14 20 18 18 19 14 15 13 15 17 18 22 21 20 21 24 25 23 19 17 16 16 17 19 16 14 13 14 14 14 14 15 15 14 14
22 23 23 20 21 19 18 17 16 15 15 12 12 12 13 14 12 9 13 15 18 18 12 9 12 14 14 15 11 12 16 21 21 21 22 24 23 22 22 20 18 16 16 16 14 12 12 14 14 13 13 14 17 17
19 19 21 19 19 17 15 14 14 14 13 11 12 11 12 10 9 11 17 16 14 14 15 15 14 11 9 11 15 16 19 20 19 19 21 20 20 23 23 23 22 21 17 15 15 14 12 12 13 13 12 13 14 14
18 20 18 19 17 17 15 14 13 12 12 14 13 11 9 9 9 16 16 17 15 14 11 13 16 17 15 16 16 18 18 20 20 19 18 18 19 19 20 22 23 21 18 16 15 16 15 14 13 13 12 12 13 15
19 19 18 16 15 16 16 16 15 15 15 14 12 10 11 15 16 15 16 13 14 11 8 9 11 16 17 16 17 18 18 18 15 12 11 11 13 16 21 21 21 21 21 18 19 19 16 15 14 13 13 14 14 15
19 19 15 14 15 13 14 17 17 17 14 15 16 14 13 13 13 17 17 14 13 12 13 14 16 16 17 18 19 18 18 18 18 15 13 13 14 17 19 19 18 19 19 18 16 18 20 19 18 18 17 17 17 16
20 18 16 15 13 14 16 12 11 11 12 12 13 12 12 13 13 14 15 15 16 17 17 17 18 19 19 19 19 18 17 18 19 18 18 18 18 17 15 15 16 16 17 17 16 15 17 18 17 17 15 13 12 14
17 17 15 14 13 14 11 10 12 12 12 11 11 11 11 10 10 12 14 14 15 15 16 18 17 18 18 18 20 19 20 19 18 17 16 16 17 17 15 13 13 13 13 13 13 12 11 12 12 12 11 11 10 11
12 12 12 13 13 13 12 11 11 12 11 10 10 11 11 12 11 12 13 12 14 14 14 13 10 9 8 8 8 10 13 14 13 15 16 17 17 18 14 12 11 11 11 11 11 10 10 10 10 10 11 11 11 11

GFSWCAN_sfc_30mbdewp_057.txt.gz
Dewpoint
52 51 50 48 47 45 44 43 43 43 44 42 40 40 42 42 42 41 37 37 31 28 28 27 25 23 23 26 28 32 35 37 36 30 29 27 25 26 25 26 25 25 23 24 25 24 19 31 34 31 33 36 36 36
52 51 50 49 48 46 44 43 43 44 44 41 40 40 41 42 41 42 36 38 37 34 29 30 30 30 30 28 25 25 32 33 37 35 32 30 26 25 25 23 26 24 25 24 25 25 27 34 35 37 36 36 36 36
52 51 51 49 48 46 45 44 44 44 44 42 40 40 41 42 42 42 40 39 38 34 30 26 24 28 32 31 31 25 28 33 33 35 34 36 31 28 24 26 26 27 28 26 25 26 28 29 37 38 37 36 37 36
52 52 51 50 48 47 45 45 44 45 43 43 41 41 42 42 42 42 39 40 38 34 26 22 28 26 28 31 32 31 29 30 32 31 32 35 34 32 28 28 28 28 29 28 28 29 31 32 35 39 39 37 37 37
52 52 51 49 48 47 46 46 45 45 44 43 41 41 42 42 42 40 39 39 39 33 25 26 31 32 30 30 29 30 29 28 28 24 30 32 36 35 34 33 30 31 30 28 27 30 29 30 33 38 37 37 37 36
52 52 51 49 49 48 47 46 45 45 45 42 41 42 42 42 39 37 29 37 38 37 29 23 29 27 29 30 27 27 29 28 30 28 27 31 35 37 34 30 31 30 32 32 31 36 36 37 37 37 36 35 35 35
51 51 50 49 48 48 47 47 46 45 43 41 41 42 42 42 38 32 30 36 39 38 31 25 25 30 34 32 31 32 30 31 29 27 28 29 31 33 31 31 29 30 31 34 36 37 36 37 36 36 35 35 36 35
51 50 50 49 48 48 46 46 45 45 43 41 42 41 41 39 40 37 39 39 39 35 33 24 22 27 33 29 27 31 29 30 30 26 27 29 30 29 26 34 35 32 33 35 35 35 35 35 34 34 34 34 34 34
49 49 49 49 48 47 46 46 45 44 42 41 41 39 38 37 34 35 38 40 40 34 27 27 24 24 36 34 34 28 30 27 28 27 29 33 32 29 30 34 35 35 34 35 34 34 34 33 33 34 34 34 34 34
48 49 48 48 47 47 46 46 45 42 41 38 35 32 29 35 37 39 37 32 32 32 31 25 27 26 33 34 32 31 33 30 27 30 35 30 29 33 35 35 34 35 35 35 34 33 33 33 33 33 33 34 34 34
49 48 48 47 47 47 46 46 44 41 35 32 29 30 35 38 34 33 29 28 29 26 29 29 29 28 36 30 31 34 32 33 28 32 32 31 31 33 32 31 31 32 33 33 33 33 33 33 32 33 33 34 35 31
48 48 47 47 47 46 47 45 42 38 36 34 31 35 33 28 29 27 25 29 27 26 31 30 33 33 34 39 35 35 31 31 27 36 31 29 34 32 31 30 30 31 31 31 32 32 32 33 33 33 33 34 34 33
47 47 47 47 47 47 46 43 40 39 36 35 30 26 25 27 22 22 21 24 27 31 32 32 30 34 37 38 35 33 30 29 33 30 29 29 32 30 29 29 29 30 31 33 33 32 30 29 31 32 33 33 34 34
48 47 47 46 47 47 45 43 40 37 33 25 23 12 21 22 22 23 26 27 30 32 32 32 32 32 35 33 33 29 32 32 27 24 24 30 31 30 29 29 29 31 32 30 29 28 28 29 30 30 28 26 25 27
46 46 46 46 47 47 45 42 38 35 29 24 21 11 18 23 28 29 30 30 31 33 32 31 31 33 32 30 32 31 28 25 26 25 32 31 29 28 29 29 28 31 31 30 30 29 28 27 26 27 27 26 25 24
44 43 44 46 47 46 43 38 36 33 28 25 24 18 21 22 20 27 27 28 32 32 32 32 29 28 29 30 29 27 27 25 30 31 32 31 29 28 29 29 27 27 29 31 31 30 27 25 25 25 26 26 27 25
44 41 45 46 46 43 39 37 36 32 28 24 22 22 23 23 24 25 28 28 32 29 27 28 25 27 28 27 26 28 29 30 32 31 31 30 29 28 28 30 27 24 21 22 26 27 25 25 22 16 14 21 25 26
42 43 46 45 40 38 34 34 32 28 25 24 23 22 24 22 23 25 27 30 29 27 27 26 27 25 24 25 26 31 31 31 32 29 29 30 29 27 26 28 29 30 29 28 24 24 23 21 16 14 16 20 22 23
41 44 44 41 38 35 32 30 31 25 23 22 24 24 24 24 26 26 28 29 29 29 28 26 23 22 23 26 29 32 31 30 29 29 29 29 29 26 23 24 25 23 20 20 23 18 18 19 16 15 16 20 20 21
43 44 42 39 36 31 28 26 27 25 22 21 22 23 23 25 25 25 25 26 26 25 24 23 23 25 26 29 29 29 29 28 27 25 26 28 28 27 26 25 24 23 21 22 20 20 17 15 15 15 16 20 20 18
40 42 40 35 32 32 29 23 23 21 20 17 20 20 19 21 21 22 23 25 24 22 21 23 24 25 26 27 28 27 26 27 25 26 26 27 28 28 29 28 26 23 20 18 16 15 18 14 13 14 15 19 20 20
35 37 33 33 29 28 24 24 20 20 19 19 18 19 18 17 19 20 22 20 20 20 21 23 23 24 25 24 23 24 24 23 22 22 25 27 27 26 26 26 26 25 23 22 18 15 14 14 15 15 16 18 20 18
37 35 32 31 27 26 21 24 21 20 17 17 16 15 16 16 16 18 16 16 17 19 22 23 24 23 23 21 20 19 19 19 18 19 22 23 25 25 25 25 25 25 24 23 20 17 15 16 17 16 15 19 18 16
36 32 28 26 26 20 21 18 20 18 17 16 15 14 16 16 15 14 12 13 17 19 21 22 22 19 14 16 17 16 18 21 21 22 22 23 23 23 23 23 24 24 24 23 21 20 18 17 18 16 16 15 16 15
28 26 27 22 22 18 16 16 17 17 17 15 15 13 14 13 11 12 11 12 16 18 19 19 19 16 8 10 13 13 18 20 16 14 17 21 22 22 21 20 20 21 22 22 20 18 16 15 14 15 14 14 14 13
22 24 22 20 19 18 17 16 16 15 15 14 13 12 12 14 12 10 11 14 15 19 17 15 8 10 13 14 8 7 8 18 20 17 15 20 22 22 21 21 21 21 17 19 19 16 14 13 13 12 12 13 16 17
19 19 21 19 20 18 16 15 15 15 14 12 11 11 12 10 8 9 14 17 17 18 17 12 12 10 8 9 12 14 14 18 16 13 18 20 22 23 23 21 21 23 21 18 18 16 14 12 12 12 12 12 12 12
20 20 19 18 17 16 15 14 13 13 12 13 11 10 9 8 6 12 15 16 15 16 13 14 16 15 12 11 13 15 15 17 17 18 18 18 17 18 19 21 22 24 23 19 18 17 17 15 13 13 12 12 12 13
18 19 17 17 16 16 15 15 14 14 15 14 12 10 11 13 15 15 15 15 13 11 7 6 8 10 11 13 14 15 15 16 15 14 13 13 12 13 16 18 19 20 23 23 22 20 17 16 15 14 14 13 13 13
18 18 13 15 15 13 15 17 16 16 15 15 15 15 13 13 13 14 15 14 12 12 12 12 14 13 13 14 14 15 15 17 18 17 16 15 15 14 14 16 17 18 20 20 20 19 22 20 19 17 14 14 14 14
19 17 14 13 11 13 14 11 10 12 12 12 10 12 12 11 11 12 14 16 16 16 16 15 16 17 17 17 16 15 16 17 18 18 18 18 17 16 17 17 16 16 17 17 17 17 18 18 16 16 16 15 15 17
17 15 13 11 12 12 10 10 10 11 10 10 10 9 9 10 10 10 12 14 15 16 16 17 16 16 15 15 15 15 20 19 17 17 17 17 18 17 16 16 14 14 14 15 15 14 14 17 16 16 16 15 13 11
11 11 10 12 13 13 11 11 10 10 10 10 9 9 9 10 11 12 10 9 13 14 13 12 10 8 8 7 7 7 10 8 11 17 18 19 19 17 14 12 12 12 12 12 12 11 11 11 12 12 11 10 10 10

GFSWCAN_sfc_30mbdewp_063.txt.gz
Dewpoint
52 51 50 48 47 46 44 43 43 43 43 40 40 41 42 42 42 38 36 38 33 30 29 29 26 25 24 23 20 27 30 35 35 29 29 28 26 26 25 26 26 26 25 27 26 23 18 26 32 29 30 35 35 35
52 51 50 48 47 46 44 44 44 44 44 40 40 41 42 42 43 38 35 39 38 34 30 32 33 32 30 27 26 25 29 31 31 32 31 31 27 26 25 23 27 23 24 24 25 23 25 27 33 34 36 36 36 36
52 51 50 48 47 47 45 44 44 45 44 41 41 41 42 42 41 41 37 39 37 32 29 26 24 26 32 33 31 25 28 34 32 32 31 34 31 28 24 24 25 26 27 25 26 25 26 27 29 34 37 36 36 37
51 50 50 49 48 47 46 45 44 45 44 42 41 42 42 42 42 41 37 38 36 34 25 22 29 28 30 31 31 30 30 31 33 31 25 28 31 36 31 30 28 27 27 26 26 27 28 29 31 31 36 37 37 37
51 50 50 49 48 47 46 45 45 44 43 43 41 42 42 42 40 37 37 38 38 31 24 25 28 30 31 30 30 32 30 29 28 23 25 22 30 33 34 33 32 31 28 27 26 27 27 27 29 33 36 37 37 36
51 50 50 49 48 47 46 46 46 45 44 44 41 42 42 42 38 33 30 35 38 35 29 20 27 29 30 30 31 30 30 30 30 26 25 27 30 32 28 27 32 33 32 32 31 31 31 31 36 37 36 38 37 37
51 50 49 49 48 47 46 46 46 45 45 44 41 42 42 41 36 30 29 35 39 36 29 22 21 26 34 32 31 31 32 31 29 28 26 26 27 31 28 22 23 27 31 35 36 35 34 36 35 36 37 36 36 35
51 50 50 49 48 47 46 47 47 45 45 42 42 42 41 41 38 34 37 40 37 32 29 23 20 24 34 31 28 31 29 30 29 26 27 26 27 27 20 20 21 22 25 31 36 37 35 36 35 35 35 35 34 34
50 50 49 49 48 47 47 47 46 45 43 42 41 40 38 34 32 34 40 40 38 33 25 25 22 22 35 34 33 30 29 25 28 25 25 27 26 23 21 21 30 34 31 32 36 35 35 35 35 34 34 34 34 33
50 50 49 48 47 47 47 47 46 44 42 39 35 30 31 34 38 38 38 33 32 32 28 24 26 24 31 33 32 29 29 28 24 26 30 28 26 29 31 33 32 32 33 36 36 34 33 34 34 34 34 33 34 34
50 49 49 48 47 47 47 46 44 41 36 31 29 28 34 37 32 33 27 26 28 24 28 27 27 27 33 29 31 34 30 30 27 29 28 29 28 34 36 35 35 33 32 33 35 36 35 34 34 33 33 34 35 34
49 49 48 48 47 46 46 45 42 36 33 30 31 33 31 28 27 23 22 27 25 23 30 30 32 32 33 36 32 33 30 31 25 33 30 27 30 32 31 30 30 34 35 34 33 34 35 35 35 34 34 34 33 34
48 48 48 47 46 47 46 44 40 37 35 31 26 24 23 25 20 19 19 21 23 31 31 30 28 31 34 36 33 33 29 28 35 29 27 31 30 30 29 29 30 32 35 34 33 33 33 32 33 33 30 27 25 27
48 47 47 47 47 47 45 43 38 36 29 24 16 15 16 19 20 20 21 25 29 29 29 31 29 30 33 31 32 28 30 32 27 24 25 31 30 29 29 29 30 31 30 30 31 32 32 32 31 30 29 28 25 24
47 47 47 47 47 46 43 40 38 34 26 23 16 14 15 18 21 23 27 28 30 30 31 29 28 30 29 29 31 30 27 24 26 25 30 32 31 29 28 29 30 32 31 31 31 32 31 26 25 25 27 26 27 25
47 46 45 47 46 44 42 37 36 32 26 23 19 14 18 20 19 23 26 27 28 28 28 26 27 26 24 28 27 26 25 23 27 31 32 32 31 29 28 29 29 31 33 32 32 31 31 28 27 25 22 20 24 26
43 42 46 47 45 41 38 37 36 32 29 25 23 22 19 17 15 19 24 26 29 27 20 23 22 21 25 24 24 28 27 30 31 32 33 32 30 29 28 29 27 29 32 32 31 31 31 30 28 22 11 13 20 24
39 44 46 45 40 38 36 35 32 30 27 27 24 22 22 22 20 23 26 28 28 25 24 22 26 22 22 21 23 27 32 33 33 33 31 29 29 29 28 28 28 26 22 22 26 31 29 27 21 16 14 15 18 20
43 46 43 41 38 35 34 32 32 28 25 23 24 23 23 23 23 23 25 28 28 28 26 26 22 20 21 24 24 27 30 30 27 27 27 27 26 27 28 26 26 28 27 29 30 30 27 28 20 18 14 14 16 18
45 42 41 40 37 35 30 28 28 26 23 23 21 22 22 22 23 24 26 28 28 26 24 22 22 23 23 24 25 28 29 28 27 24 23 23 24 27 27 27 25 24 25 24 24 23 23 22 19 16 15 14 15 16
42 42 38 36 34 33 29 24 24 24 21 21 18 21 20 20 22 23 24 28 26 23 21 22 23 24 25 25 27 27 27 26 25 24 22 22 23 25 25 27 27 27 26 24 23 23 26 27 26 18 14 15 18 20
38 38 35 34 31 28 26 26 24 21 18 16 18 16 16 16 17 20 23 23 22 20 22 21 22 23 23 23 24 24 25 24 23 23 24 22 17 16 18 21 24 25 26 27 27 27 27 26 23 19 16 14 17 19
36 35 33 32 28 26 20 24 21 18 16 16 14 15 14 14 14 19 17 19 18 19 21 22 21 21 22 22 22 22 21 21 17 15 15 17 18 20 21 22 23 23 23 24 25 25 25 25 23 21 16 17 15 15
36 32 29 28 27 20 21 19 20 17 16 16 14 14 12 13 13 13 13 13 14 16 16 18 20 21 20 20 21 20 14 16 15 16 18 17 14 13 17 19 21 22 23 24 23 23 23 22 22 20 18 15 15 14
30 28 27 22 20 17 16 15 15 16 17 15 14 13 12 11 12 12 11 11 10 12 13 16 18 21 20 19 17 13 15 16 13 10 11 14 13 14 13 15 16 18 20 21 21 22 22 21 20 19 17 16 15 13
24 25 24 21 18 17 15 15 15 15 15 15 14 9 9 11 11 11 10 11 12 14 13 16 17 19 20 20 12 7 9 15 16 12 11 13 13 11 10 11 11 11 18 20 20 20 21 20 20 18 17 17 19 17
22 20 22 20 18 16 16 15 14 15 15 16 12 11 12 12 10 10 12 13 13 17 18 18 20 20 19 19 18 13 12 14 13 11 13 13 14 15 15 13 12 14 17 19 20 20 20 20 19 18 17 16 15 14
23 20 19 19 18 15 16 15 15 15 14 12 11 11 10 9 7 9 12 15 16 16 15 16 20 21 20 16 14 12 12 14 14 15 15 15 15 15 16 17 19 20 22 21 20 20 20 19 19 18 17 16 16 15
19 19 18 17 16 16 15 15 15 14 14 12 11 10 10 11 11 12 14 15 14 15 9 6 8 16 17 15 14 14 14 14 12 9 9 10 10 11 12 14 15 15 16 17 20 22 22 21 20 19 18 17 16 15
17 17 17 16 18 18 17 15 14 14 14 13 13 14 14 13 14 14 14 13 13 13 13 12 12 12 12 12 13 14 13 13 14 14 13 14 14 13 12 12 13 13 14 15 16 16 20 22 23 24 21 17 15 13
17 15 13 16 17 13 13 11 10 12 11 11 8 12 13 11 11 11 10 11 12 12 13 13 13 13 14 14 14 14 15 15 14 14 14 15 15 16 16 15 15 14 14 15 16 16 16 17 18 19 20 18 16 15
18 17 15 12 13 12 10 10 8 10 8 9 9 5 8 9 9 9 8 8 11 11 14 13 13 14 11 9 9 10 14 12 11 10 8 9 10 12 14 15 15 14 14 15 14 14 15 15 16 16 17 17 15 13
13 13 14 16 17 14 11 9 8 9 8 9 9 7 7 8 9 10 7 5 8 8 8 7 6 5 5 5 6 6 8 6 6 13 15 17 18 18 17 15 15 14 13 13 13 13 13 13 13 13 13 14 13 12

GFSWCAN_sfc_30mbdewp_066.txt.gz
Dewpoint
53 52 50 48 47 45 45 43 44 43 41 40 41 43 43 42 42 36 36 37 32 28 28 29 27 28 27 24 21 24 28 32 35 30 30 28 26 26 25 26 27 26 25 26 26 24 18 26 30 29 28 34 36 35
52 51 50 48 47 46 45 44 44 44 41 41 41 42 42 42 41 37 35 39 38 32 29 33 33 33 31 28 27 26 29 30 30 30 31 30 27 26 25 23 27 24 25 24 25 24 25 25 29 32 35 35 36 36
52 51 49 48 47 46 46 45 44 44 41 41 41 42 42 42 42 39 37 37 35 30 27 24 24 27 30 32 32 25 28 34 31 32 29 31 30 28 24 24 25 26 27 25 25 24 26 27 28 29 32 35 36 37
51 50 49 48 47 46 46 45 45 45 42 42 41 42 42 42 41 39 35 37 34 30 20 21 28 28 31 31 31 30 30 32 33 32 24 28 29 35 31 30 30 27 27 26 26 26 27 27 29 31 32 36 37 37
51 50 48 48 47 46 46 45 45 44 43 42 42 42 42 41 39 37 36 37 36 28 21 24 27 29 30 30 30 31 30 29 27 22 24 21 27 31 31 33 31 32 29 27 26 28 28 29 29 32 33 34 37 36
50 49 48 48 47 47 46 46 46 45 44 43 41 42 42 41 38 32 29 33 37 34 26 18 25 28 30 31 30 30 30 30 29 25 23 26 29 30 24 25 29 33 33 31 31 34 33 32 32 36 36 36 37 37
50 48 48 48 47 47 46 46 46 45 44 42 41 42 42 40 34 29 28 34 38 35 26 21 21 25 32 32 30 29 31 30 28 27 26 26 26 31 28 21 22 23 21 22 29 32 33 35 35 36 37 37 37 35
49 48 48 47 47 46 46 46 46 45 44 42 42 42 41 40 38 33 37 39 35 31 28 22 20 25 34 32 29 31 29 30 29 26 26 25 26 26 22 23 22 22 31 31 29 31 34 36 35 35 35 35 34 34
49 48 48 47 47 46 46 46 46 45 43 42 40 40 36 33 30 34 40 39 38 31 24 24 23 22 31 33 33 31 29 24 28 25 25 26 24 22 17 19 23 31 32 32 34 35 36 36 36 35 34 34 33 33
49 48 48 47 46 46 46 46 46 44 42 40 34 30 30 33 38 40 37 31 31 30 28 24 25 25 30 32 32 29 28 27 24 25 29 26 25 27 29 30 33 33 32 33 36 35 35 34 34 34 34 34 34 34
48 48 48 46 46 46 46 46 44 41 36 31 29 29 35 37 32 32 27 26 27 24 28 27 27 28 32 29 30 33 30 29 25 29 27 27 27 31 34 34 33 34 34 33 34 35 36 35 34 33 33 34 35 34
48 48 47 46 46 46 46 44 40 35 33 30 31 32 31 28 26 21 21 26 24 23 29 29 31 32 33 35 31 33 29 31 24 32 28 26 30 30 30 30 30 33 35 35 34 33 34 34 35 35 34 32 30 33
48 47 47 46 46 46 45 42 38 36 32 28 25 23 23 25 20 18 17 21 23 29 31 29 27 31 33 35 32 32 29 27 34 29 26 29 30 30 29 29 29 32 34 34 33 32 32 33 33 32 31 30 30 25
48 47 46 46 46 45 43 39 37 34 29 23 16 16 16 17 18 18 19 22 27 29 28 28 27 28 32 30 30 27 30 32 27 23 24 30 31 30 29 29 29 31 30 31 32 32 31 31 31 31 31 30 28 26
47 46 46 46 45 44 41 38 36 31 26 21 16 14 14 17 19 20 22 27 29 28 28 27 25 27 27 27 29 28 26 24 25 24 30 32 32 31 31 29 29 31 31 32 32 32 31 28 27 26 27 24 27 28
46 45 44 46 44 42 40 37 35 30 23 21 18 15 18 18 20 24 27 27 27 27 28 25 24 23 23 27 26 24 25 22 26 31 32 32 32 32 31 29 29 30 33 33 32 32 31 29 25 24 25 21 22 25
43 43 46 44 42 40 38 35 35 30 27 26 23 22 18 16 16 21 25 26 28 26 20 22 20 20 24 23 23 26 26 28 31 32 33 33 32 30 29 28 29 28 33 33 32 31 31 31 30 23 15 11 18 22
42 45 44 42 39 37 36 34 32 29 26 26 24 23 21 21 20 23 25 28 28 26 24 20 23 21 20 20 21 23 30 32 33 33 33 32 28 27 27 28 28 28 27 26 27 28 31 29 29 25 20 16 16 17
44 44 42 40 38 36 34 33 32 27 25 24 24 22 23 23 23 22 24 28 27 26 25 24 21 20 20 22 21 22 28 31 29 27 27 27 26 25 25 27 27 26 27 26 24 27 31 30 30 25 19 15 14 16
44 42 41 39 38 33 30 28 29 26 24 23 21 22 22 22 23 23 25 28 27 25 23 22 21 22 21 22 23 23 25 30 29 26 24 23 22 24 23 25 27 26 25 25 25 27 25 23 22 21 19 16 13 12
41 40 38 36 35 31 27 25 25 25 21 21 18 20 20 21 22 23 24 27 27 24 21 22 23 23 24 24 25 26 28 27 26 25 24 23 22 23 23 23 23 24 26 26 26 25 25 24 24 28 27 20 17 17
38 38 35 34 31 29 25 25 23 21 18 17 18 16 17 16 18 21 23 25 23 21 22 21 21 22 23 23 23 24 25 26 26 25 25 25 20 14 15 18 22 21 23 24 25 26 26 27 27 27 24 22 18 17
37 36 33 32 29 26 21 24 22 17 17 16 13 15 14 14 12 17 18 21 20 20 21 21 21 20 21 22 22 22 23 23 23 23 22 18 16 17 17 18 20 20 19 20 23 24 24 25 26 26 23 21 17 16
36 34 30 29 28 19 21 19 20 17 15 16 15 15 13 12 12 13 14 14 15 16 16 17 18 19 19 20 20 22 22 21 20 17 15 15 13 13 14 15 18 19 20 20 21 22 22 23 24 23 22 20 17 15
26 27 27 22 20 17 16 15 16 17 17 16 15 14 11 11 12 11 12 12 12 12 12 13 14 16 17 17 19 20 20 20 17 12 13 16 15 13 11 11 12 13 16 16 15 17 19 20 21 21 21 19 18 15
21 24 24 22 18 18 16 15 15 16 16 15 14 8 8 11 12 13 11 11 11 11 11 12 12 13 16 19 19 17 15 16 16 12 11 12 12 10 8 8 8 9 15 16 15 15 17 19 20 20 19 19 21 20
21 21 21 20 18 16 15 15 14 15 15 16 13 11 11 13 13 12 12 12 12 13 16 16 16 16 16 18 20 20 14 16 15 13 13 13 14 14 12 11 10 12 15 15 17 17 16 17 17 18 18 18 17 17
22 20 19 19 17 15 16 15 15 15 15 13 12 13 12 13 11 10 11 12 14 15 15 15 15 17 19 20 19 16 15 14 14 14 14 14 14 15 15 16 17 18 20 19 18 18 18 19 19 18 18 18 18 16
20 19 19 18 16 16 16 16 15 15 15 13 13 11 11 11 11 11 13 14 12 13 13 12 13 12 13 16 17 15 13 13 12 10 9 10 12 13 13 13 13 14 14 16 18 21 21 20 20 20 19 19 18 17
18 18 17 17 18 18 17 15 14 13 13 13 13 13 13 13 13 12 13 12 12 11 12 13 14 13 14 13 13 14 13 14 14 14 13 14 14 14 14 14 13 13 11 12 14 15 18 19 20 21 24 21 19 17
16 15 14 16 18 14 13 10 9 11 11 11 7 13 13 11 11 10 10 9 9 10 11 11 11 11 13 13 13 14 14 13 12 12 12 13 13 13 14 15 15 14 14 14 15 15 15 15 16 16 17 18 19 19
17 16 13 11 11 11 8 9 8 10 8 10 10 5 8 9 8 9 8 7 9 9 11 8 8 9 8 6 5 5 10 9 8 7 7 8 9 11 12 12 13 13 13 13 14 14 14 14 14 14 15 15 16 16
12 13 14 16 17 15 11 9 8 9 7 8 8 7 6 7 8 9 6 4 7 7 7 7 7 6 6 6 6 6 8 5 6 13 15 16 18 18 18 17 16 15 14 13 13 12 12 12 12 13 13 13 13 13

GFSWCAN_sfc_30mbdewp_072.txt.gz
Dewpoint
48 48 53 51 49 48 48 46 45 44 43 43 42 42 40 40 39 38 37 37 30 28 29 28 28 25 25 24 20 24 29 32 34 31 31 29 24 25 24 25 26 26 24 26 26 24 19 26 29 26 25 31 34 35
46 48 52 50 49 48 47 46 45 44 43 43 42 42 41 40 39 38 34 37 35 30 29 32 32 31 30 27 26 26 29 31 31 30 31 30 26 26 25 22 28 25 26 24 26 23 27 27 28 31 32 31 30 32
47 49 51 49 48 48 47 45 44 44 44 43 42 42 41 40 39 38 36 36 33 28 25 25 25 27 31 32 32 24 29 33 31 32 31 31 29 29 24 24 25 27 27 26 25 25 27 27 28 29 30 31 31 32
47 51 50 49 48 47 46 45 44 44 43 43 42 42 41 40 38 36 35 36 32 28 23 23 28 29 31 32 32 30 31 32 32 31 27 30 30 33 30 31 29 28 27 26 26 27 28 29 30 31 32 34 34 34
46 49 49 48 47 46 46 44 44 44 43 42 42 42 40 39 38 37 37 37 34 29 24 24 27 28 31 31 31 31 30 29 28 24 24 23 28 28 30 30 29 31 28 26 24 29 32 31 32 29 35 35 35 35
46 48 49 48 47 46 44 44 44 44 43 43 42 40 39 38 36 31 30 34 37 32 27 26 26 29 31 31 31 30 30 30 29 26 24 25 27 28 25 22 25 30 30 28 30 30 30 31 30 30 36 36 37 37
46 49 48 47 47 46 44 44 44 44 43 43 40 39 38 37 36 29 29 33 36 33 27 24 25 25 29 30 30 30 31 30 28 28 26 26 26 28 26 21 23 25 20 24 31 31 31 30 30 34 36 36 36 35
48 49 47 47 46 46 44 44 44 44 43 42 40 39 39 39 36 34 38 37 34 30 27 22 24 28 33 32 29 32 29 29 28 27 27 25 25 26 23 24 25 21 30 33 34 34 33 34 35 34 36 37 35 34
49 48 47 47 46 45 45 44 44 43 43 41 39 39 36 33 31 35 39 38 35 30 25 26 25 25 29 33 34 31 29 25 29 26 25 25 22 21 20 19 20 27 31 33 34 34 36 36 36 36 36 35 35 35
48 47 47 46 46 45 45 44 43 43 42 41 36 32 30 35 38 40 33 29 29 30 29 25 27 26 29 29 32 29 29 27 24 26 28 25 24 26 27 29 31 34 33 34 33 32 34 34 35 35 35 35 34 35
48 47 46 46 45 45 44 43 43 42 39 32 31 30 35 38 33 30 27 25 26 26 28 27 28 27 32 26 28 33 29 29 25 27 26 26 24 30 30 30 30 31 33 35 35 34 34 34 34 35 34 34 34 34
47 46 46 45 45 44 44 43 42 36 33 32 34 35 33 29 25 22 23 25 24 24 27 28 28 29 32 34 31 32 27 30 24 30 27 22 28 30 31 30 29 30 32 33 35 34 33 33 33 33 32 31 31 31
47 46 45 45 45 44 43 43 37 36 33 30 28 26 26 25 17 16 14 21 24 27 30 29 27 30 33 34 32 31 27 26 32 28 25 26 31 32 33 32 32 31 31 32 34 34 33 33 32 32 31 31 31 30
46 45 45 45 44 43 43 38 37 32 28 23 21 14 18 15 18 19 19 21 25 30 28 27 26 27 31 29 30 26 28 31 25 24 23 28 32 33 33 33 32 33 33 31 31 33 32 32 31 31 31 30 28 28
45 45 45 44 43 41 39 37 34 31 26 19 23 13 15 20 21 21 24 28 29 29 27 26 25 25 26 26 29 28 25 22 22 23 27 32 33 34 34 34 33 30 29 31 33 33 32 32 30 30 27 25 23 24
45 45 43 43 41 39 36 36 33 29 26 24 22 19 21 23 22 25 26 27 28 28 26 25 23 22 23 24 23 22 21 20 23 27 33 33 33 32 33 32 29 29 29 30 34 33 33 32 31 29 26 21 19 21
42 41 43 42 39 37 36 35 33 29 28 26 23 24 23 24 24 27 27 27 28 25 20 23 19 19 24 22 21 24 23 25 27 32 33 33 32 32 33 30 28 27 27 29 31 34 33 33 32 30 29 26 17 17
41 42 41 39 38 37 34 33 30 28 25 25 25 22 21 20 23 26 26 27 27 24 23 17 22 21 20 19 20 22 26 28 32 32 33 32 32 33 32 30 27 25 26 28 29 32 32 31 30 30 31 31 29 28
40 40 39 38 37 35 33 32 30 25 23 25 23 23 23 22 23 24 26 27 27 26 23 23 19 18 18 22 21 23 22 26 28 30 29 29 30 30 26 24 24 24 24 26 26 26 26 27 28 30 30 29 27 27
41 40 39 37 35 32 30 30 30 27 25 23 24 23 22 22 22 24 27 27 26 25 21 20 18 19 19 21 23 23 23 23 26 26 26 27 26 24 23 23 22 23 23 24 25 26 26 26 27 28 28 27 24 21
39 39 38 35 30 28 28 27 24 23 23 21 20 21 20 23 23 23 24 29 27 26 22 22 21 21 22 23 24 24 24 24 24 24 24 25 25 25 24 24 22 20 21 21 20 21 26 27 26 26 26 25 26 27
38 38 35 33 28 25 23 23 23 20 19 18 19 17 19 19 20 21 24 25 24 24 25 23 22 22 22 22 23 23 24 24 24 25 26 27 26 26 25 20 17 15 17 19 21 21 21 22 23 24 26 26 27 27
38 37 34 30 25 23 21 24 20 17 20 18 16 17 15 14 14 17 20 23 23 23 24 23 22 21 22 22 21 21 22 22 22 22 23 24 25 25 24 23 20 15 13 14 16 17 18 21 23 24 25 25 25 24
35 31 28 24 21 19 21 19 18 16 16 16 15 15 12 12 12 15 15 15 17 17 18 19 18 17 16 15 15 15 17 20 20 21 22 22 22 22 21 21 17 16 16 15 16 16 16 16 19 21 22 23 23 23
28 27 24 20 18 18 18 18 17 18 18 15 15 14 11 9 13 13 13 14 13 13 13 11 13 14 11 11 12 13 16 18 19 19 20 20 22 20 18 15 13 13 16 15 12 12 12 14 14 16 17 19 19 20
22 23 22 18 18 17 16 17 17 17 16 16 14 7 7 11 13 13 13 13 13 12 12 11 10 10 10 12 11 11 15 18 18 18 20 20 20 21 20 14 10 9 13 14 13 11 12 13 13 14 15 16 18 21
20 20 21 19 18 16 15 15 15 15 16 16 12 10 12 14 13 14 14 14 13 13 13 14 14 13 12 13 14 15 17 18 18 18 16 15 16 18 18 14 9 13 16 15 15 15 15 16 16 17 16 17 17 17
20 20 19 18 16 15 15 15 15 15 15 13 12 14 14 14 13 15 15 13 13 13 15 14 14 14 14 14 15 14 15 15 14 15 16 16 16 15 15 17 17 19 20 19 19 19 19 18 18 18 18 18 18 18
20 18 19 18 17 16 16 16 16 16 15 14 15 14 14 13 13 11 12 12 11 12 13 11 11 11 13 12 12 12 13 15 14 11 10 10 11 13 13 14 14 15 15 15 17 19 19 19 19 19 19 20 20 20
18 19 18 18 19 19 17 15 14 13 13 14 13 13 13 13 13 11 12 12 12 11 10 10 9 10 11 11 11 11 11 11 13 14 13 13 13 12 12 11 11 12 12 12 13 14 15 16 17 17 18 18 18 19
17 16 17 17 18 14 11 9 9 11 10 11 8 13 13 12 12 9 9 8 8 8 10 11 10 7 8 9 8 8 9 10 8 8 8 9 9 9 10 11 12 13 13 13 13 13 13 13 13 14 14 15 15 17
16 16 15 16 14 9 7 10 9 11 8 11 12 6 9 10 11 10 8 7 9 12 13 9 8 8 7 7 6 6 10 10 8 7 7 9 11 12 12 13 13 13 14 14 14 13 13 12 11 11 11 12 12 13
11 11 11 14 15 14 10 9 8 8 7 8 8 6 6 7 7 8 5 4 9 10 10 8 7 6 6 5 5 5 7 5 5 12 13 14 16 17 17 18 18 18 18 17 16 15 13 12 11 10 9 9 9 9